Weather History for KMPV - January, 2014

Change the Weather History Date:

Tuesday, January 7, 2014

  Actual Average Record
Temperature  
Mean Temperature 10 °F 17 °F  
Max Temperature 17 °F 26 °F 51 °F (2008)
Min Temperature 2 °F 7 °F -21 °F (1996)
Degree Days  
Heating Degree Days 55 48  
Month to date heating degree days 401 334  
Since 1 July heating degree days 3659 3482  
Cooling Degree Days 0 0  
Month to date cooling degree days 0  
Year to date cooling degree days 0  
Moisture  
Dew Point -2 °F    
Average Humidity 71    
Maximum Humidity 92    
Minimum Humidity 49    
Precipitation  
Precipitation T in 0.07 in 0.99 in (1998)
Month to date precipitation 0.65 0.51  
Year to date precipitation 0.65 0.51  
Sea Level Pressure  
Sea Level Pressure 29.73 in    
Wind  
Wind Speed 13 mph (West)    
Max Wind Speed 26 mph    
Max Gust Speed 39 mph    
Visibility 5 miles    
Events Fog , Snow    
T = Trace of Precipitation, MM = Missing Value Source: NWS Daily Summary

Daily Weather History Graph

Daily Weather History Graph

Search for Another Location

Airport or City:

Trip Planner

Search our weather history database for the weather conditions in past years. The results will help you decide how hot, cold, wet, or windy it might be!

Date:

Astronomy

Jan. 07, 2014 Rise Set
Actual Time 7:25 AM EST 4:28 PM EST
Civil Twilight 6:52 AM EST 5:00 PM EST
Nautical Twilight 6:16 AM EST 5:37 PM EST
Astronomical Twilight 5:41 AM EST 6:12 PM EST
Moon 10:56 AM EST (1/7) No Moon Set
Length of Visible Light 10h 08m
Length of Day
9h 02m
Waxing Crescent, 45% of the Moon is Illuminated
Jan 7
Waxing Crescent
Jan 7
First Quarter
Jan 15
Full
Jan 24
Last Quarter
Jan 30
New

Hourly Weather History & Observations

Time (EST) Temp. Windchill Dew Point Humidity Pressure Visibility Wind Dir Wind Speed Gust Speed Precip Events Conditions
12:03 AM 15.8 °F 2.1 °F 12.2 °F 86% 29.45 in 0.2 mi West 12.7 mph 21.9 mph 0.00 in Fog , Snow Heavy Snow
12:19 AM 15.8 °F 2.7 °F 12.2 °F 86% 29.47 in 0.8 mi West 11.5 mph 24.2 mph 0.00 in Snow Light Snow
12:24 AM 15.8 °F 2.7 °F 12.2 °F 86% 29.47 in 1.2 mi West 11.5 mph 24.2 mph 0.00 in Snow Light Snow
12:29 AM 15.8 °F 4.2 °F 12.2 °F 86% 29.46 in 2.0 mi West 9.2 mph 24.2 mph 0.00 in Snow Light Snow
12:42 AM 15.8 °F 5.1 °F 10.4 °F 79% 29.47 in 1.2 mi West 8.1 mph 20.7 mph 0.00 in Snow Light Snow
12:51 AM 15.1 °F 1.8 °F 10.9 °F 84% 29.52 in 1.2 mi West 11.5 mph 18.4 mph 0.00 in Snow Light Snow
12:59 AM 15.8 °F 2.1 °F 8.6 °F 73% 29.48 in 1.8 mi West 12.7 mph 23.0 mph 0.00 in Snow Light Snow
1:09 AM 15.8 °F 1.4 °F 8.6 °F 73% 29.48 in 3.0 mi West 13.8 mph 18.4 mph 0.00 in Snow Light Snow
1:33 AM 14.0 °F 1.2 °F 6.8 °F 73% 29.49 in 2.5 mi West 10.4 mph 19.6 mph 0.00 in Snow Light Snow
1:51 AM 12.9 °F -3.4 °F 5.0 °F 71% 29.56 in 1.8 mi West 16.1 mph 26.5 mph 0.00 in Snow Light Snow
1:58 AM 12.2 °F -5.3 °F 5.0 °F 73% 29.51 in 2.0 mi West 18.4 mph 27.6 mph 0.00 in Snow Light Snow
2:14 AM 10.4 °F -7.7 °F 1.4 °F 67% 29.52 in 4.0 mi West 18.4 mph 26.5 mph 0.00 in   Overcast
2:37 AM 10.4 °F -5.4 °F 1.4 °F 67% 29.53 in 7.0 mi WSW 13.8 mph 21.9 mph 0.00 in   Mostly Cloudy
2:44 AM 10.4 °F -2.4 °F 1.4 °F 67% 29.53 in 9.0 mi WSW 9.2 mph 19.6 mph 0.00 in   Mostly Cloudy
2:51 AM 10.0 °F -0.9 °F 1.0 °F 67% 29.60 in 10.0 mi WSW 6.9 mph - 0.00 in   Mostly Cloudy
3:51 AM 8.1 °F -7.0 °F -2.0 °F 64% 29.62 in 10.0 mi WSW 11.5 mph 21.9 mph N/A   Overcast
4:51 AM 7.0 °F -8.3 °F -6.0 °F 55% 29.66 in 10.0 mi West 11.5 mph 20.7 mph N/A   Scattered Clouds
5:51 AM 6.1 °F -6.8 °F -6.0 °F 58% 29.69 in 9.0 mi West 8.1 mph 19.6 mph N/A   Mostly Cloudy
6:51 AM 6.1 °F -8.7 °F -4.0 °F 63% 29.72 in 4.0 mi WNW 10.4 mph 23.0 mph 0.00 in Snow Light Snow
7:51 AM 6.1 °F -10.9 °F -7.1 °F 55% 29.74 in 6.0 mi West 13.8 mph 26.5 mph 0.00 in Snow Blowing Snow
7:57 AM 6.8 °F -12.9 °F -7.6 °F 52% 29.68 in 1.8 mi West 19.6 mph 35.7 mph 0.00 in Snow Light Snow
8:07 AM 6.8 °F -9.3 °F -5.8 °F 56% 29.69 in 3.0 mi WNW 12.7 mph 29.9 mph 0.00 in Snow Blowing Snow
8:19 AM 6.8 °F -10.7 °F -4.0 °F 61% 29.69 in 1.8 mi WNW 15.0 mph 32.2 mph 0.00 in Snow Light Snow
8:31 AM 6.8 °F -11.8 °F -5.8 °F 56% 29.70 in 2.0 mi West 17.3 mph 34.5 mph 0.00 in Snow Light Snow
8:51 AM 5.0 °F -11.6 °F -4.0 °F 66% 29.79 in 2.0 mi West 12.7 mph 25.3 mph 0.00 in Snow Light Snow
8:59 AM 5.0 °F -13.0 °F -2.2 °F 72% 29.72 in 1.5 mi WNW 15.0 mph 25.3 mph 0.00 in Snow Light Snow
9:16 AM 6.8 °F -10.7 °F -5.8 °F 56% 29.73 in 3.0 mi West 15.0 mph 34.5 mph 0.00 in Snow Blowing Snow
9:51 AM 6.1 °F -13.3 °F -6.0 °F 58% 29.83 in 6.0 mi West 18.4 mph 26.5 mph 0.00 in Snow Blowing Snow
10:34 AM 6.8 °F -10.7 °F -5.8 °F 56% 29.76 in 2.5 mi West 15.0 mph 24.2 mph 0.00 in Snow Light Snow
10:42 AM 6.8 °F -9.3 °F -5.8 °F 56% 29.76 in 4.0 mi West 12.7 mph 27.6 mph 0.00 in Snow Blowing Snow
10:51 AM 6.1 °F -13.3 °F -7.1 °F 55% 29.83 in 9.0 mi West 18.4 mph 26.5 mph 0.00 in   Overcast
11:07 AM 5.0 °F -10.8 °F -2.2 °F 72% 29.76 in 1.8 mi SW 11.5 mph 24.2 mph 0.00 in Snow Light Snow
11:11 AM 5.0 °F -10.0 °F -2.2 °F 72% 29.76 in 1.0 mi SW 10.4 mph - 0.00 in Snow Light Snow
11:20 AM 6.8 °F -3.5 °F -0.4 °F 72% 29.76 in 1.0 mi Variable 5.8 mph - 0.00 in Snow Light Snow
11:24 AM 6.8 °F -3.5 °F -2.2 °F 67% 29.76 in 1.5 mi Variable 5.8 mph 16.1 mph 0.00 in Snow Light Snow
11:27 AM 6.8 °F -8.6 °F -2.2 °F 67% 29.76 in 2.0 mi West 11.5 mph 16.1 mph 0.00 in Snow Light Snow
11:35 AM 6.8 °F -5.9 °F -0.4 °F 72% 29.76 in 3.0 mi West 8.1 mph - 0.00 in Snow Light Snow
11:38 AM 6.8 °F -6.9 °F -2.2 °F 67% 29.76 in 2.5 mi WSW 9.2 mph 16.1 mph 0.00 in Snow Light Snow
11:43 AM 6.8 °F -5.9 °F -0.4 °F 72% 29.76 in 1.2 mi WSW 8.1 mph 16.1 mph 0.00 in Snow Light Snow
11:51 AM 6.1 °F -4.3 °F -0.9 °F 73% 29.84 in 1.5 mi Variable 5.8 mph 16.1 mph 0.00 in Snow Light Snow
11:56 AM 6.8 °F -3.5 °F -0.4 °F 72% 29.76 in 3.0 mi WSW 5.8 mph - 0.00 in Snow Light Snow
12:51 PM 6.1 °F -10.9 °F -9.0 °F 50% 29.85 in 9.0 mi WSW 13.8 mph 25.3 mph 0.00 in   Overcast
1:51 PM 5.0 °F -13.0 °F -9.9 °F 50% 29.88 in 10.0 mi WSW 15.0 mph 23.0 mph N/A   Overcast
2:51 PM 5.0 °F -10.0 °F -11.0 °F 48% 29.91 in 10.0 mi WSW 10.4 mph 27.6 mph N/A   Overcast
3:51 PM 5.0 °F -12.3 °F -11.0 °F 48% 29.94 in 10.0 mi WSW 13.8 mph 20.7 mph N/A   Overcast
4:51 PM 3.9 °F -15.0 °F -11.9 °F 48% 29.97 in 10.0 mi WSW 16.1 mph 32.2 mph N/A   Overcast
5:51 PM 3.0 °F -15.5 °F -11.9 °F 50% 29.99 in 10.0 mi WSW 15.0 mph 26.5 mph N/A   Overcast
6:51 PM 1.9 °F -13.8 °F -13.0 °F 50% 30.01 in 10.0 mi WSW 10.4 mph 28.8 mph N/A   Mostly Cloudy
7:51 PM 1.9 °F -21.2 °F -11.9 °F 52% 30.03 in 9.0 mi SW 24.2 mph 38.0 mph N/A   Overcast
8:51 PM 1.9 °F -18.7 °F -11.9 °F 52% 30.04 in 10.0 mi SW 18.4 mph 38.0 mph N/A   Overcast
9:51 PM 1.9 °F -12.9 °F -9.9 °F 58% 30.06 in 10.0 mi SSW 9.2 mph 25.3 mph N/A   Overcast
10:51 PM 3.0 °F -14.8 °F -9.0 °F 57% 30.07 in 10.0 mi WSW 13.8 mph 27.6 mph N/A   Overcast
11:51 PM 3.0 °F -16.1 °F -6.0 °F 66% 30.09 in 5.0 mi WSW 16.1 mph 26.5 mph 0.00 in   Overcast